sat.trackr.live / text

‹ back to catalog

LEMUR-2-MARIO-SOUSA

NORAD 67365 · 2026-004C

PAYLOAD ACTIVE UNKNOWN

§ Identity

Operator
Country
US
Launch date
2026-01-11
Launch site
AFWTR
Launch vehicle
Mass (kg)
RCS (m²)

Purposes: earth_obs

External: N2YO · Heavens-Above · Gunter

§ Orbital elements

Epoch: 2026-09-19T22:44:07.855296Z

Period
96.70 min
Inclination
97.8059°
Eccentricity
0.0008065
Mean motion
14.89125774 rev/d
Perigee alt
595.0 km
Apogee alt
606.3 km
Semi-major
6,978.8 km
B*
2.3675e-4
RAAN
260.1148°
Arg perigee
177.2602°
Mean anomaly
182.8661°
Rev number
3,739

§ Raw data

LEMUR-2-MARIO-SOUSA1 67365U 26004C   26262.94731314  .00002180  00000+0  23675-3 0  99952 67365  97.8059 260.1148 0008065 177.2602 182.8661 14.89125774 37395

JSON: /api/v1/satellites/67365 · /tle

For live sub-satellite position, see the globe view (requires WebGL).

§ Visibility from observer

Set your observer location to see the next 7 days of passes ≥ 10°. The values pass through the URL so the page stays shareable.

No JS? Fill the form by hand. The geolocation button needs JavaScript.